Regional Weather Roundup
Issued by NWS Bismarck, ND

Home | Current Version | Previous Version | Text Only | Print | Product List | Glossary On
Versions: 1 2 3 4 5 6 7 8 9 10 11 12 13 14 15 16 17 18 19 20 21 22 23 24 25 26 27 28 29 30 31 32 33 34 35 36 37 38 39 40 41 42 43 44 45 46 47 48 49 50
617
ASUS43 KBIS 251802
RWRBIS

NWR BROADCAST TEXT
NATIONAL WEATHER SERVICE BISMARCK ND
100 PM CDT MON JUL 25 2016

NOTE: "FAIR" INDICATES FEW OR NO CLOUDS BELOW 12,000 FEET WITH NO
SIGNIFICANT WEATHER AND/OR OBSTRUCTIONS TO VISIBILITY.


CITY           SKY/WX    TMP DP  RH WIND       PRES   REMARKS
WILLISTON      SUNNY     87  53  31 NE8       29.98S
MINOT          SUNNY     87  59  38 E5        29.95F
MINOT AFB      SUNNY     82  60  48 NE5       29.95S
BISMARCK       SUNNY     86  64  47 S9        29.97F
DICKINSON      SUNNY     87  54  32 VRB3      29.98F
GARRISON         N/A     81  65  58 SE5       29.98R
HETTINGER ARPT SUNNY     94  54  25 SE9       30.01F HX  92
JAMESTOWN      SUNNY     87  64  46 S16       29.99F
CARRINGTON     FAIR      84  68  58 S12       30.00F
OAKES            N/A    N/A N/A N/A MISG        N/A
STANLEY        FAIR      82  59  44 CALM      30.01S
$$

CITY           SKY/WX    TMP DP  RH WIND       PRES   REMARKS
GRAND FORKS    MOSUNNY   83  61  47 SE8       29.98F
GRAND FORKS AF SUNNY     83  62  48 SW10      29.99F
DEVILS LAKE    SUNNY     81  63  54 SE9       29.99F
FARGO          SUNNY     85  60  42 S9        30.01F
GRAFTON        FAIR      81  63  54 CALM      30.00F
GWINNER        FAIR      84  63  48 S17       30.04F
LANGDON        FAIR      82  61  47 SW6       30.02S
ROLLA            N/A     77  63  61 S5        30.01S
$$

CITY           SKY/WX    TMP DP  RH WIND       PRES   REMARKS
ABERDEEN       SUNNY     88  60  38 S15G23    30.04F
MOBRIDGE       SUNNY     95  58  28 S16G24    29.97F HX  94
BUFFALO          N/A    N/A N/A N/A MISG      29.94F
RAPID CITY     SUNNY     88  56  33 S16G23    30.06F
GLASGOW        SUNNY     85  50  29 VRB3      29.99S
SIDNEY         SUNNY     86  58  38 VRB7      29.98S
WOLF POINT     SUNNY     89  53  29 NW6       29.98F
GLENDIVE       SUNNY     89  50  26 VRB6      29.99F
MILES CITY     SUNNY     91  48  22 CALM      29.99S
BAKER          SUNNY     93  45  19 VRB3      30.02S
$$

CITY           SKY/WX    TMP DP  RH WIND       PRES   REMARKS
BILLINGS       MOSUNNY   85  46  25 S7        30.05F
GREAT FALLS    SUNNY     81  43  26 CALM      30.10S
$$





USA.gov is the U.S. government's official web portal to all federal, state and local government web resources and services.